Satellite: ASTRA 1B
Catalog number: 21139
Epoch time:      103049.00000000
Element set:     161 
Inclination:        0.0122 deg
RA of node:       319.8851 deg
Eccentricity:    0.0002995
Arg of perigee:    65.1991 deg
Mean anomaly:     141.6493 deg
Mean motion:    1.00273184 rev/day
Decay rate:    1.1600E-006 rev/day^2
Epoch rev:            3218
Checksum:              228

Satellite: METEOSAT 5 (MO
Catalog number: 21140
Epoch time:      103047.68262738
Element set:     721 
Inclination:        5.6248 deg
RA of node:        69.9570 deg
Eccentricity:    0.0002249
Arg of perigee:   156.5628 deg
Mean anomaly:     228.2831 deg
Mean motion:    1.00273744 rev/day
Decay rate:    2.0999E-007 rev/day^2
Epoch rev:            4603
Checksum:              304

Satellite: NOAA 12
Catalog number: 21263
Epoch time:      103049.90493397
Element set:     972 
Inclination:       98.6262 deg
RA of node:        39.5259 deg
Eccentricity:    0.0013500
Arg of perigee:    24.2076 deg
Mean anomaly:     335.9735 deg
Mean motion:   14.25082834 rev/day
Decay rate:    4.2599E-006 rev/day^2
Epoch rev:           61126
Checksum:              322

Satellite: OSCAR 22 (UoSA
Catalog number: 21575
Epoch time:      103050.20306704
Element set:     729 
Inclination:       98.1410 deg
RA of node:        42.2926 deg
Eccentricity:    0.0008291
Arg of perigee:   126.4085 deg
Mean anomaly:     233.7868 deg
Mean motion:   14.39156815 rev/day
Decay rate:    4.3400E-006 rev/day^2
Epoch rev:           60837
Checksum:              302

Satellite: METEOR 3-5
Catalog number: 21655
Epoch time:      103049.90210429
Element set:     500 
Inclination:       82.5545 deg
RA of node:        38.6226 deg
Eccentricity:    0.0012703
Arg of perigee:   193.9202 deg
Mean anomaly:     166.1572 deg
Mean motion:   13.16980685 rev/day
Decay rate:    5.1000E-007 rev/day^2
Epoch rev:           55352
Checksum:              287

Satellite: UARS
Catalog number: 21701
Epoch time:      103049.36326089
Element set:     827 
Inclination:       56.9816 deg
RA of node:        32.8836 deg
Eccentricity:    0.0004623
Arg of perigee:   114.7988 deg
Mean anomaly:     245.3506 deg
Mean motion:   15.02860713 rev/day
Decay rate:    1.0020E-005 rev/day^2
Epoch rev:           62568
Checksum:              301

Satellite: EUTELSAT 2-F3
Catalog number: 21803
Epoch time:      103042.92968172
Element set:     522 
Inclination:        2.5812 deg
RA of node:        89.1760 deg
Eccentricity:    0.0003183
Arg of perigee:   279.4172 deg
Mean anomaly:     129.1437 deg
Mean motion:    1.00276864 rev/day
Decay rate:    1.3600E-006 rev/day^2
Epoch rev:            3693
Checksum:              285

Satellite: INMARSAT 2-F3
Catalog number: 21814
Epoch time:      103049.42501748
Element set:     618 
Inclination:        1.7439 deg
RA of node:        58.4331 deg
Eccentricity:    0.0002902
Arg of perigee:   281.3806 deg
Mean anomaly:     179.1293 deg
Mean motion:    1.00269684 rev/day
Decay rate:    1.0799E-006 rev/day^2
Epoch rev:            4089
Checksum:              303

Satellite: INMARSAT 2-F4
Catalog number: 21940
Epoch time:      103044.69223701
Element set:     571 
Inclination:        2.3861 deg
RA of node:        19.3937 deg
Eccentricity:    0.0002023
Arg of perigee:   315.0988 deg
Mean anomaly:     166.9456 deg
Mean motion:    1.00266626 rev/day
Decay rate:   -3.4600E-006 rev/day^2
Epoch rev:            3963
Checksum:              286

Satellite: EUTELSAT 2-F4
Catalog number: 22028
Epoch time:      103044.39942538
Element set:     331 
Inclination:        1.7034 deg
RA of node:        92.5617 deg
Eccentricity:    0.0006121
Arg of perigee:   233.1956 deg
Mean anomaly:     308.7354 deg
Mean motion:    1.00271910 rev/day
Decay rate:   -9.4000E-007 rev/day^2
Epoch rev:            3172
Checksum:              261

Satellite: OSCAR 23 (KITS
Catalog number: 22077
Epoch time:      103044.51429948
Element set:     154 
Inclination:       66.0872 deg
RA of node:       136.3141 deg
Eccentricity:    0.0015528
Arg of perigee:   275.1186 deg
Mean anomaly:      84.8061 deg
Mean motion:   12.86408248 rev/day
Decay rate:   -3.7000E-007 rev/day^2
Epoch rev:           49365
Checksum:              309

Satellite: ASTRA 1C
Catalog number: 22653
Epoch time:      103049.00000000
Element set:     788 
Inclination:        0.0122 deg
RA of node:       319.8851 deg
Eccentricity:    0.0002995
Arg of perigee:    65.1991 deg
Mean anomaly:     141.6099 deg
Mean motion:    1.00273184 rev/day
Decay rate:    1.1600E-006 rev/day^2
Epoch rev:            3088
Checksum:              252

Satellite: METEOR 2-21
Catalog number: 22782
Epoch time:      103049.60690431
Element set:     521 
Inclination:       82.5450 deg
RA of node:       214.8627 deg
Eccentricity:    0.0022127
Arg of perigee:   349.5884 deg
Mean anomaly:      10.4799 deg
Mean motion:   13.83532848 rev/day
Decay rate:    1.4299E-006 rev/day^2
Epoch rev:           47809
Checksum:              331

Satellite: KITSAT B
Catalog number: 22825
Epoch time:      103049.54247283
Element set:     489 
Inclination:       98.2748 deg
RA of node:        79.2404 deg
Eccentricity:    0.0007446
Arg of perigee:   258.8181 deg
Mean anomaly:     101.2167 deg
Mean motion:   14.28943756 rev/day
Decay rate:    1.8599E-006 rev/day^2
Epoch rev:           48987
Checksum:              359

Satellite: POSAT 1
Catalog number: 22826
Epoch time:      103050.55290949
Element set:     312 
Inclination:       98.2762 deg
RA of node:        81.3165 deg
Eccentricity:    0.0008030
Arg of perigee:   257.9086 deg
Mean anomaly:     102.1206 deg
Mean motion:   14.29167221 rev/day
Decay rate:    2.0699E-006 rev/day^2
Epoch rev:           49006
Checksum:              407

Satellite: ITAMSAT
Catalog number: 22828
Epoch time:      103049.55307587
Element set:     428 
Inclination:       98.2712 deg
RA of node:        80.6295 deg
Eccentricity:    0.0009094
Arg of perigee:   236.4642 deg
Mean anomaly:     123.5678 deg
Mean motion:   14.29508771 rev/day
Decay rate:    1.8299E-006 rev/day^2
Epoch rev:           45812
Checksum:              340

Satellite: EYESAT A
Catalog number: 22829
Epoch time:      103050.54201427
Element set:     454 
Inclination:       98.2721 deg
RA of node:        82.1750 deg
Eccentricity:    0.0008954
Arg of perigee:   233.1945 deg
Mean anomaly:     126.8425 deg
Mean motion:   14.29769880 rev/day
Decay rate:    2.8399E-006 rev/day^2
Epoch rev:           49019
Checksum:              432

Satellite: METEOSAT 6
Catalog number: 22912
Epoch time:      103041.98342015
Element set:     675 
Inclination:        2.6574 deg
RA of node:        82.5051 deg
Eccentricity:    0.0000882
Arg of perigee:   234.1423 deg
Mean anomaly:     187.7120 deg
Mean motion:    1.00280377 rev/day
Decay rate:    7.4000E-007 rev/day^2
Epoch rev:            3222
Checksum:              253

Satellite: GOES 8
Catalog number: 23051
Epoch time:      103050.15062644
Element set:     612 
Inclination:        0.2983 deg
RA of node:       103.0532 deg
Eccentricity:    0.0001115
Arg of perigee:   300.6345 deg
Mean anomaly:      84.4584 deg
Mean motion:    1.00277254 rev/day
Decay rate:   -2.5599E-006 rev/day^2
Epoch rev:            3981
Checksum:              257

Satellite: ASTRA 1D
Catalog number: 23331
Epoch time:      103048.86015624
Element set:     818 
Inclination:        0.0599 deg
RA of node:       221.2811 deg
Eccentricity:    0.0003631
Arg of perigee:   131.7762 deg
Mean anomaly:     128.1823 deg
Mean motion:    1.00275415 rev/day
Decay rate:    1.3600E-006 rev/day^2
Epoch rev:            3086
Checksum:              249

Satellite: RADIO ROSTO
Catalog number: 23439
Epoch time:      103049.29359592
Element set:     682 
Inclination:       64.8151 deg
RA of node:        41.9255 deg
Eccentricity:    0.0146804
Arg of perigee:   115.2566 deg
Mean anomaly:     246.3616 deg
Mean motion:   11.27547528 rev/day
Decay rate:   -4.1999E-007 rev/day^2
Epoch rev:           33556
Checksum:              336

Satellite: NOAA 14
Catalog number: 23455
Epoch time:      103049.89893128
Element set:     526 
Inclination:       99.1868 deg
RA of node:        68.4770 deg
Eccentricity:    0.0008614
Arg of perigee:   227.2763 deg
Mean anomaly:     132.7684 deg
Mean motion:   14.13297944 rev/day
Decay rate:    1.7800E-006 rev/day^2
Epoch rev:           41952
Checksum:              349

Satellite: HIMAWARI 5 (GM
Catalog number: 23522
Epoch time:      103049.45419627
Element set:     108 
Inclination:        1.7564 deg
RA of node:        83.3354 deg
Eccentricity:    0.0000592
Arg of perigee:    87.5970 deg
Mean anomaly:     280.6985 deg
Mean motion:    1.00278678 rev/day
Decay rate:   -2.8399E-006 rev/day^2
Epoch rev:            2889
Checksum:              340

Satellite: HOT BIRD 1
Catalog number: 23537
Epoch time:      103044.99704955
Element set:     534 
Inclination:        0.0294 deg
RA of node:        58.1907 deg
Eccentricity:    0.0015353
Arg of perigee:   318.4019 deg
Mean anomaly:     138.8041 deg
Mean motion:    1.00273188 rev/day
Decay rate:    9.0999E-007 rev/day^2
Epoch rev:            2892
Checksum:              307

Satellite: GOES 9
Catalog number: 23581
Epoch time:      103050.52477154
Element set:     522 
Inclination:        0.2714 deg
RA of node:       277.5767 deg
Eccentricity:    0.0011866
Arg of perigee:   252.3616 deg
Mean anomaly:      10.6487 deg
Mean motion:    1.00057931 rev/day
Decay rate:    1.2100E-006 rev/day^2
Epoch rev:            2837
Checksum:              272

